Location: Zaragoza
(41.6330°N, 0.8830°W)
Time: 02:49:10
(UTC+02:00)

ISS - Visible Passes

Search period start: 30 March 2017 00:00
Search period end: 09 April 2017 00:00
Orbit: 399 x 409 km, 51.6° (Epoch: 30 March)

Date Brightness Start Highest point End Pass type
(mag) Time Alt. Az. Time Alt. Az. Time Alt. Az.
30 Mar -3.8 20:47:00 10° SW 20:50:13 66° SE 20:53:28 10° ENE visible
30 Mar -1.7 22:24:15 10° WNW 22:26:56 23° NNW 22:28:00 20° N visible
31 Mar -2.2 21:31:25 10° W 21:34:24 33° NNW 21:37:24 10° NE visible
31 Mar -0.7 23:09:38 10° NW 23:10:45 14° NNW 23:10:45 14° NNW visible
01 Apr -1.2 22:16:42 10° NW 22:18:57 17° NNW 22:20:40 12° NNE visible
02 Apr -1.5 21:23:45 10° WNW 21:26:19 21° NNW 21:28:53 10° NE visible
02 Apr -0.9 23:01:48 10° NNW 23:03:08 14° N 23:03:08 14° N visible
03 Apr -1.1 22:09:03 10° NW 22:10:58 14° N 22:12:52 10° NNE visible
04 Apr -1.2 21:16:08 10° NW 21:18:15 16° N 21:20:24 10° NNE visible
04 Apr -1.1 22:53:31 10° NNW 22:55:11 16° N 22:55:11 16° N visible
05 Apr -1.2 22:01:02 10° NNW 22:02:58 15° N 22:04:48 10° NE visible
05 Apr -0.3 23:37:16 10° NW 23:37:27 11° NW 23:37:27 11° NW visible
06 Apr -1.2 21:08:21 10° NW 21:10:13 14° N 21:12:05 10° NNE visible
06 Apr -1.6 22:44:58 10° NW 22:47:03 21° N 22:47:03 21° N visible
07 Apr -1.5 21:52:37 10° NNW 21:54:53 17° NNE 21:56:38 12° NE visible
07 Apr -0.6 23:28:39 10° NW 23:29:17 15° NW 23:29:17 15° NW visible
08 Apr -2.4 22:36:17 10° NW 22:38:52 32° N 22:38:52 32° N visible
